FW5313 Weather Reports


Display with metric or nautical units.
time (UTC)temp
F
wind
direction
speed
MPH
gust
MPH
rain 1hr
in
rain 24hr
in
rain mn
in
humidity
%
barometer
mb
20260906214041 60 276 1.0 3.0 0.00 0.25 0.05 75 1016.1
20260906213546 60 359 0.0 8.0 0.00 0.25 0.05 74 1016.2
20260906213104 60 0 1.0 8.0 0.00 0.25 0.05 71 1016.0
20260906212541 60 264 2.0 8.0 0.00 0.25 0.05 69 1016.2
20260906212045 60 257 1.0 7.0 0.00 0.25 0.05 74 1016.1
20260906211558 60 345 1.0 7.0 0.00 0.25 0.05 73 1016.0
20260906211044 60 121 1.0 3.0 0.00 0.25 0.05 73 1016.0
20260906210541 60 236 1.0 3.0 0.00 0.25 0.05 74 1016.0
20260906210107 60 352 1.0 3.0 0.00 0.25 0.05 73 1016.1
20260906205541 60 126 0.0 3.0 0.00 0.25 0.05 74 1016.2
20260906205040 61 263 0.0 6.0 0.00 0.25 0.05 74 1016.1
20260906204602 61 250 1.0 6.0 0.00 0.25 0.05 71 1016.0
20260906204043 62 320 2.0 6.0 0.00 0.25 0.05 68 1016.1
20260906203542 62 342 1.0 3.0 0.00 0.25 0.05 71 1016.0
20260906203054 62 0 1.0 3.0 0.00 0.25 0.05 71 1016.1
20260906202545 62 292 1.0 3.0 0.00 0.25 0.05 70 1016.0
20260906202041 63 0 1.0 4.0 0.00 0.25 0.05 70 1016.0
20260906201554 64 0 1.0 4.0 0.00 0.25 0.05 68 1015.9
20260906201041 65 256 1.0 4.0 0.00 0.25 0.05 67 1015.8
20260906200541 64 117 1.0 4.0 0.00 0.25 0.05 68 1015.8
20260906200054 65 310 1.0 4.0 0.00 0.25 0.05 64 1015.7
20260906195541 66 100 1.0 4.0 0.00 0.25 0.05 64 1015.6
20260906195047 66 302 1.0 5.0 0.00 0.25 0.05 68 1015.6
20260906194607 66 253 1.0 5.0 0.00 0.25 0.05 59 1015.5
20260906194042 66 250 1.0 5.0 0.00 0.25 0.05 66 1015.6
20260906193546 65 269 1.0 3.0 0.00 0.25 0.05 68 1015.6
20260906193105 64 311 1.0 8.0 0.00 0.25 0.05 69 1015.6
20260906192547 64 331 2.0 8.0 0.00 0.25 0.05 71 1015.5
20260906192045 65 36 1.0 5.0 0.00 0.25 0.05 62 1015.6
20260906191611 65 293 2.0 4.0 0.00 0.25 0.05 61 1015.6
20260906191045 65 264 1.0 3.0 0.00 0.25 0.05 71 1015.5
20260906190549 65 159 1.0 3.0 0.00 0.25 0.05 63 1015.7
20260906190105 64 219 1.0 3.0 0.00 0.25 0.05 73 1015.7
20260906185545 64 271 1.0 6.0 0.00 0.25 0.05 70 1015.7
20260906185042 65 308 1.0 6.0 0.00 0.25 0.05 70 1015.7
20260906184624 64 336 1.0 6.0 0.00 0.25 0.05 64 1015.7
20260906184046 65 212 1.0 4.0 0.00 0.25 0.05 67 1015.7
20260906183544 67 306 1.0 5.0 0.00 0.25 0.05 65 1015.7
20260906183103 68 31 2.0 5.0 0.00 0.25 0.05 58 1015.6
20260906182548 68 246 1.0 3.0 0.00 0.25 0.05 71 1015.7
20260906182049 67 274 1.0 3.0 0.00 0.25 0.05 72 1015.8
20260906181604 66 20 2.0 4.0 0.00 0.25 0.05 66 1015.9
20260906181047 66 118 1.0 8.0 0.00 0.25 0.05 71 1015.9
20260906180547 65 18 1.0 8.0 0.00 0.25 0.05 75 1015.8
20260906180121 65 338 1.0 3.0 0.00 0.25 0.05 65 1015.9
20260906175543 66 270 0.0 4.0 0.00 0.25 0.05 66 1016.0
20260906175045 67 285 1.0 5.0 0.00 0.25 0.05 72 1015.9
20260906174614 66 263 1.0 5.0 0.00 0.25 0.05 70 1016.0
20260906174047 66 315 1.0 5.0 0.00 0.25 0.05 72 1016.0
20260906173546 64 304 1.0 5.0 0.00 0.25 0.05 69 1016.2
20260906173107 64 310 0.0 3.0 0.00 0.25 0.05 77 1016.2
20260906172546 64 238 1.0 5.0 0.00 0.25 0.05 69 1016.2
20260906172046 65 226 1.0 5.0 0.00 0.25 0.05 76 1016.1
20260906171612 64 185 1.0 6.0 0.00 0.25 0.05 74 1016.1
20260906171045 64 11 0.0 6.0 0.00 0.25 0.05 77 1016.1
20260906170542 65 250 0.0 4.0 0.00 0.25 0.05 68 1016.2
20260906165547 66 203 1.0 4.0 0.00 0.25 0.05 73 1016.0
20260906165046 65 268 0.0 6.0 0.00 0.25 0.05 81 1016.1
20260906164558 63 212 1.0 7.0 0.00 0.25 0.05 75 1016.3
20260906164047 63 310 2.0 7.0 0.00 0.25 0.05 73 1016.3
20260906163551 65 257 1.0 6.0 0.00 0.25 0.05 76 1016.3
20260906163105 65 274 1.0 6.0 0.00 0.25 0.05 75 1016.4
20260906162546 64 103 0.0 4.0 0.00 0.25 0.05 76 1016.4
20260906162047 63 152 1.0 4.0 0.00 0.25 0.05 81 1016.4
20260906161623 63 96 1.0 5.0 0.00 0.25 0.05 80 1016.4
20260906161046 63 169 1.0 5.0 0.00 0.25 0.05 84 1016.6
20260906160545 62 146 1.0 4.0 0.00 0.25 0.05 86 1016.6
20260906155545 60 258 0.0 3.0 0.00 0.25 0.05 85 1016.8
20260906155046 60 258 0.0 3.0 0.00 0.25 0.05 84 1016.8
20260906154606 60 215 1.0 4.0 0.00 0.25 0.05 91 1016.8
20260906154046 60 158 1.0 4.0 0.00 0.25 0.05 90 1016.9
20260906153547 59 252 1.0 3.0 0.00 0.25 0.05 88 1016.8
20260906153112 59 247 0.0 4.0 0.00 0.25 0.05 89 1016.8
20260906152545 59 217 0.0 4.0 0.00 0.25 0.05 90 1016.9
20260906152047 59 215 1.0 4.0 0.00 0.25 0.05 89 1016.9
20260906151557 59 295 1.0 4.0 0.00 0.25 0.05 90 1016.9
20260906151045 59 279 1.0 4.0 0.00 0.25 0.05 90 1016.8
20260906150547 58 242 1.0 4.0 0.00 0.25 0.05 91 1016.8
20260906150107 57 260 0.0 6.0 0.00 0.25 0.05 92 1016.8
20260906145547 57 0 0.0 6.0 0.00 0.25 0.05 91 1017.0
20260906145044 57 141 1.0 6.0 0.00 0.25 0.05 90 1016.9
20260906144601 57 0 0.0 4.0 0.00 0.25 0.05 93 1016.9
20260906144045 56 0 0.0 4.0 0.00 0.25 0.05 92 1016.9
20260906143543 56 229 0.0 4.0 0.00 0.25 0.05 94 1016.9
20260906143059 56 210 0.0 4.0 0.00 0.25 0.05 92 1016.8
20260906142543 56 257 1.0 4.0 0.00 0.25 0.05 91 1016.7
20260906142046 56 0 0.0 3.0 0.00 0.25 0.05 95 1016.7
20260906141622 56 0 0.0 3.0 0.00 0.25 0.05 94 1016.6
20260906141042 56 127 0.0 3.0 0.00 0.25 0.05 95 1016.8
20260906140543 56 0 0.0 3.0 0.00 0.25 0.05 94 1016.6
20260906140055 55 0 0.0 1.0 0.00 0.25 0.05 95 1016.6
20260906135544 55 214 0.0 1.0 0.00 0.25 0.05 95 1016.5
20260906135044 55 0 0.0 2.0 0.00 0.25 0.05 95 1016.5
20260906134559 55 0 0.0 2.0 0.00 0.25 0.05 95 1016.6
20260906134044 55 269 0.0 2.0 0.00 0.25 0.05 95 1016.5
20260906133544 55 283 0.0 2.0 0.00 0.25 0.05 96 1016.5
20260906133105 55 0 0.0 2.0 0.00 0.25 0.05 97 1016.5
20260906132543 55 0 0.0 2.0 0.00 0.25 0.05 97 1016.5
20260906132045 54 0 0.0 1.0 0.00 0.25 0.05 96 1016.5
20260906131606 54 0 0.0 3.0 0.00 0.25 0.05 96 1016.4
20260906131042 54 0 0.0 3.0 0.00 0.25 0.05 96 1016.4
20260906130545 54 0 0.0 2.0 0.00 0.25 0.05 97 1016.5
20260906130106 54 0 0.0 2.0 0.00 0.25 0.05 97 1016.4
20260906125547 54 223 0.0 2.0 0.00 0.25 0.05 97 1016.5
20260906125046 54 0 0.0 1.0 0.00 0.25 0.05 97 1016.5
20260906124606 54 0 0.0 1.0 0.00 0.25 0.05 97 1016.5
20260906124046 54 0 0.0 1.0 0.00 0.25 0.05 97 1016.3
20260906123544 54 0 0.0 1.0 0.00 0.25 0.05 97 1016.4
20260906123107 54 0 0.0 1.0 0.00 0.25 0.05 97 1016.4
20260906122546 53 0 0.0 1.0 0.00 0.25 0.05 97 1016.3
20260906122045 53 0 0.0 1.0 0.00 0.25 0.05 97 1016.2
20260906121552 53 257 0.0 1.0 0.00 0.25 0.05 97 1016.2
20260906121044 53 0 0.0 2.0 0.00 0.25 0.05 97 1016.3
20260906120546 53 0 0.0 2.0 0.00 0.25 0.05 97 1016.3
20260906120108 54 248 0.0 2.0 0.00 0.25 0.05 97 1016.3
20260906115545 54 255 0.0 1.0 0.00 0.25 0.05 98 1016.2
20260906115044 54 0 0.0 2.0 0.00 0.25 0.05 98 1016.2
20260906114558 53 255 0.0 2.0 0.00 0.25 0.05 98 1016.0
20260906114045 54 264 0.0 2.0 0.00 0.25 0.05 98 1016.0
20260906113544 53 0 0.0 1.0 0.00 0.25 0.05 98 1016.0
20260906113055 53 240 0.0 1.0 0.00 0.25 0.05 98 1015.9
20260906112545 53 240 0.0 1.0 0.00 0.25 0.05 98 1015.8
20260906112045 53 240 0.0 1.0 0.00 0.25 0.05 98 1015.7
20260906111601 53 0 0.0 1.0 0.00 0.25 0.05 98 1015.7
20260906111044 53 241 0.0 2.0 0.00 0.25 0.05 98 1015.6
20260906110544 53 262 0.0 2.0 0.00 0.25 0.05 98 1015.6
20260906110057 53 279 0.0 3.0 0.00 0.25 0.05 98 1015.6
20260906105544 53 264 0.0 3.0 0.00 0.25 0.05 98 1015.6
20260906105045 53 218 0.0 1.0 0.00 0.25 0.05 98 1015.5
20260906104557 53 0 0.0 1.0 0.00 0.25 0.05 98 1015.6
20260906104045 53 255 0.0 2.0 0.00 0.25 0.05 98 1015.4
20260906103549 53 0 0.0 2.0 0.00 0.25 0.05 98 1015.3
20260906103054 53 257 0.0 1.0 0.00 0.25 0.05 98 1015.5
20260906102546 53 0 0.0 1.0 0.00 0.25 0.05 98 1015.3
20260906102044 53 0 0.0 1.0 0.00 0.25 0.05 98 1015.2
20260906101600 53 0 0.0 1.0 0.01 0.25 0.05 98 1015.2
20260906101046 53 0 0.0 1.0 0.01 0.25 0.05 98 1015.2
20260906100544 53 0 0.0 1.0 0.02 0.25 0.05 98 1015.1
20260906100058 53 0 0.0 2.0 0.02 0.25 0.05 98 1015.1
20260906095544 53 0 0.0 2.0 0.02 0.25 0.05 98 1015.0
20260906095045 53 0 0.0 1.0 0.02 0.25 0.05 98 1015.0
20260906094603 53 0 0.0 1.0 0.02 0.25 0.05 98 1015.0
20260906094044 53 0 0.0 1.0 0.02 0.25 0.05 98 1015.0
20260906093545 53 0 0.0 1.0 0.02 0.25 0.05 98 1014.9
20260906093059 53 0 0.0 0.0 0.02 0.25 0.05 98 1014.9
20260906092546 53 0 0.0 1.0 0.02 0.25 0.05 98 1014.9
20260906092044 53 0 0.0 1.0 0.02 0.25 0.05 98 1014.7
20260906091554 53 0 0.0 1.0 0.01 0.24 0.04 98 1014.9
20260906091047 53 0 0.0 1.0 0.01 0.24 0.04 98 1014.8
20260906090546 53 0 0.0 1.0 0.00 0.23 0.03 98 1014.8
20260906090101 53 0 0.0 1.0 0.00 0.23 0.03 98 1014.7
20260906085545 53 0 0.0 1.0 0.00 0.23 0.03 98 1014.7
20260906085048 53 0 0.0 1.0 0.00 0.23 0.03 98 1014.6
20260906084601 53 0 0.0 1.0 0.00 0.23 0.03 98 1014.6
20260906084047 53 0 0.0 0.0 0.00 0.23 0.03 98 1014.5
20260906083544 53 0 0.0 0.0 0.00 0.23 0.03 98 1014.4
20260906083103 53 0 0.0 0.0 0.00 0.23 0.03 97 1014.5
20260906082548 53 0 0.0 0.0 0.00 0.23 0.03 97 1014.6
20260906082046 53 0 0.0 0.0 0.00 0.23 0.03 97 1014.5
20260906081554 53 0 0.0 0.0 0.00 0.23 0.03 97 1014.4
20260906081045 53 0 0.0 0.0 0.00 0.23 0.03 97 1014.5
20260906080545 53 0 0.0 0.0 0.00 0.23 0.03 97 1014.5
20260906080059 53 0 0.0 0.0 0.00 0.23 0.03 97 1014.5
20260906075545 53 0 0.0 0.0 0.01 0.23 0.03 97 1014.5
20260906075044 53 0 0.0 0.0 0.01 0.23 0.03 97 1014.5
20260906074556 53 0 0.0 0.0 0.01 0.23 0.03 97 1014.3
20260906074048 53 0 0.0 0.0 0.01 0.23 0.03 97 1014.4
20260906073547 53 0 0.0 0.0 0.01 0.23 0.03 97 1014.4
20260906073100 53 0 0.0 1.0 0.01 0.23 0.03 97 1014.5
20260906072544 53 0 0.0 1.0 0.01 0.23 0.03 97 1014.6
20260906072048 53 0 0.0 0.0 0.01 0.23 0.03 97 1014.4
20260906071555 53 0 0.0 0.0 0.01 0.23 0.03 97 1014.4
20260906071046 53 0 0.0 0.0 0.01 0.23 0.03 97 1014.3
20260906070545 53 0 0.0 0.0 0.01 0.23 0.03 97 1014.4
20260906070100 53 0 0.0 0.0 0.01 0.23 0.03 97 1014.3
20260906065546 53 0 0.0 0.0 0.00 0.22 0.02 97 1014.3
20260906065046 53 0 0.0 0.0 0.00 0.22 0.02 97 1014.4
20260906064558 53 0 0.0 0.0 0.00 0.22 0.02 97 1014.4
20260906064045 53 0 0.0 0.0 0.00 0.22 0.02 97 1014.3
20260906063545 53 0 0.0 0.0 0.00 0.22 0.02 97 1014.5
20260906063100 53 0 0.0 0.0 0.00 0.22 0.02 97 1014.5
20260906062544 53 0 0.0 0.0 0.00 0.22 0.02 97 1014.4
20260906062045 53 0 0.0 0.0 0.01 0.22 0.02 97 1014.4
20260906061559 53 0 0.0 0.0 0.01 0.22 0.02 97 1014.4
20260906061046 53 0 0.0 0.0 0.02 0.22 0.02 97 1014.4
20260906060545 53 0 0.0 0.0 0.02 0.22 0.02 97 1014.4
20260906060136 53 0 0.0 0.0 0.02 0.22 0.02 97 1014.4
20260906055550 53 0 0.0 0.0 0.02 0.22 0.02 97 1014.4
20260906055046 53 0 0.0 0.0 0.02 0.22 0.02 97 1014.4
20260906054612 54 0 0.0 1.0 0.02 0.22 0.02 97 1014.4
20260906054048 54 0 0.0 1.0 0.02 0.22 0.02 97 1014.4
20260906053544 54 2 0.0 1.0 0.02 0.22 0.02 97 1014.4
20260906053057 54 1 0.0 1.0 0.02 0.22 0.02 97 1014.5
20260906052545 54 3 0.0 2.0 0.02 0.22 0.02 97 1014.5
20260906052046 55 0 0.0 2.0 0.01 0.21 0.01 97 1014.5
20260906051601 55 3 0.0 2.0 0.01 0.21 0.01 97 1014.5
20260906051045 55 289 0.0 1.0 0.00 0.20 0.00 97 1014.4
20260906050545 55 0 0.0 0.0 0.00 0.20 0.00 97 1014.5
20260906050055 55 0 0.0 0.0 0.00 0.20 0.00 97 1014.3
20260906045546 55 0 0.0 0.0 0.00 0.20 0.00 97 1014.3
20260906045046 55 0 0.0 0.0 0.00 0.20 0.00 97 1014.2
20260906044559 55 0 0.0 1.0 0.00 0.20 0.00 97 1014.2
20260906044045 55 0 0.0 1.0 0.00 0.20 0.00 97 1014.2
20260906043545 55 0 0.0 3.0 0.01 0.20 0.00 97 1014.1
20260906043054 55 0 0.0 3.0 0.01 0.20 0.00 97 1014.0
20260906042544 55 0 0.0 1.0 0.01 0.20 0.00 97 1014.1
20260906042045 55 0 0.0 1.0 0.01 0.20 0.00 97 1014.2
20260906041553 55 0 0.0 3.0 0.01 0.20 0.00 97 1014.2
20260906041047 55 300 0.0 3.0 0.01 0.20 0.00 97 1014.2
20260906040544 56 0 0.0 1.0 0.01 0.20 0.00 97 1014.1
20260906040105 56 174 0.0 1.0 0.01 0.20 0.00 97 1014.0
20260906035548 56 173 0.0 1.0 0.01 0.20 0.20 97 1014.1
20260906035045 56 173 0.0 2.0 0.01 0.20 0.20 97 1013.9
20260906034604 56 0 0.0 2.0 0.01 0.20 0.20 97 1014.0
20260906034045 56 173 0.0 1.0 0.01 0.20 0.20 97 1013.9
20260906033544 56 0 0.0 1.0 0.00 0.19 0.19 97 1013.9
20260906033055 56 0 0.0 0.0 0.00 0.19 0.19 97 1013.8
20260906032545 56 0 0.0 0.0 0.00 0.19 0.19 97 1013.8
20260906032045 56 0 0.0 0.0 0.00 0.19 0.19 97 1013.8
20260906031557 56 0 0.0 0.0 0.00 0.19 0.19 97 1013.8
20260906031045 56 0 0.0 0.0 0.00 0.19 0.19 97 1013.6
20260906030545 56 0 0.0 0.0 0.00 0.19 0.19 97 1013.7
20260906030059 56 0 0.0 0.0 0.00 0.19 0.19 97 1013.9
20260906025544 56 0 0.0 0.0 0.00 0.19 0.19 97 1013.9
20260906025047 56 0 0.0 0.0 0.00 0.19 0.19 97 1013.8
20260906024557 56 0 0.0 0.0 0.01 0.19 0.19 97 1014.0
20260906024045 56 0 0.0 0.0 0.01 0.19 0.19 97 1013.9
20260906023544 56 0 0.0 0.0 0.01 0.19 0.19 97 1013.9
20260906023058 56 0 0.0 0.0 0.01 0.19 0.19 97 1013.9
20260906022544 56 0 0.0 0.0 0.01 0.19 0.19 97 1013.9
20260906022045 56 0 0.0 0.0 0.01 0.19 0.19 97 1014.0
20260906021602 56 0 0.0 0.0 0.01 0.19 0.19 97 1014.0
20260906021045 56 0 0.0 0.0 0.01 0.19 0.19 97 1013.9
20260906020546 56 0 0.0 0.0 0.01 0.19 0.19 97 1013.9
20260906020056 56 0 0.0 0.0 0.01 0.19 0.19 97 1014.0
20260906015544 56 0 0.0 0.0 0.01 0.19 0.19 97 1014.0
20260906015044 56 0 0.0 0.0 0.01 0.19 0.19 97 1014.0
20260906014602 57 173 0.0 0.0 0.00 0.18 0.18 97 1014.1
20260906014043 57 0 0.0 0.0 0.00 0.18 0.18 97 1014.1
20260906013546 57 0 0.0 0.0 0.01 0.18 0.18 97 1014.0
20260906013058 57 0 0.0 0.0 0.02 0.18 0.18 97 1014.0
20260906012545 57 0 0.0 0.0 0.03 0.18 0.18 97 1014.0
20260906012044 57 173 0.0 1.0 0.04 0.18 0.18 97 1014.0
20260906011602 57 173 0.0 1.0 0.04 0.18 0.18 97 1014.0
20260906011044 57 0 0.0 1.0 0.06 0.18 0.18 97 1014.0
20260906010541 57 0 0.0 1.0 0.09 0.18 0.18 97 1014.0
20260906010140 57 233 0.0 1.0 0.11 0.18 0.18 97 1014.0
20260906005545 57 0 0.0 1.0 0.13 0.18 0.18 96 1014.0
20260906005049 57 0 0.0 1.0 0.13 0.18 0.18 96 1013.9
20260906004616 57 0 0.0 1.0 0.13 0.18 0.18 96 1014.0
20260906004045 57 0 0.0 1.0 0.14 0.18 0.18 96 1014.0
20260906003545 57 0 0.0 1.0 0.13 0.17 0.17 96 1013.8
20260906003102 57 0 0.0 1.0 0.12 0.16 0.16 96 1013.9
20260906002545 57 0 0.0 0.0 0.12 0.15 0.15 96 1013.7
20260906002045 57 0 0.0 0.0 0.11 0.14 0.14 96 1013.7
20260906001604 58 0 0.0 0.0 0.11 0.14 0.14 96 1013.6
20260906001044 58 0 0.0 1.0 0.10 0.12 0.12 96 1013.7
20260906000544 58 0 0.0 1.0 0.08 0.09 0.09 96 1013.7
20260906000100 58 0 0.0 1.0 0.06 0.07 0.07 96 1013.6
20260905235549 58 210 0.0 1.0 0.04 0.05 0.05 96 1013.7
20260905235044 58 210 0.0 1.0 0.04 0.05 0.05 96 1013.7
20260905234554 58 0 0.0 1.0 0.05 0.05 0.05 96 1013.6
20260905234045 58 0 0.0 1.0 0.04 0.04 0.04 95 1013.5
20260905233545 58 0 0.0 1.0 0.04 0.04 0.04 95 1013.4
20260905233059 58 0 0.0 1.0 0.04 0.04 0.04 95 1013.4
20260905232544 58 0 0.0 0.0 0.03 0.03 0.03 94 1013.4
20260905232047 59 0 0.0 1.0 0.03 0.03 0.03 94 1013.4
20260905231556 59 0 0.0 1.0 0.03 0.03 0.03 94 1013.2
20260905231043 59 0 0.0 1.0 0.02 0.02 0.02 93 1013.2
20260905230544 59 0 0.0 2.0 0.01 0.01 0.01 93 1013.2
20260905225544 59 248 1.0 3.0 0.01 0.01 0.01 92 1013.3
20260905225043 60 0 0.0 3.0 0.01 0.01 0.01 91 1013.2
20260905224555 60 171 0.0 3.0 0.00 0.00 0.00 90 1013.1
20260905224045 61 172 1.0 3.0 0.00 0.00 0.00 88 1013.1
20260905223544 62 172 0.0 4.0 0.00 0.00 0.00 86 1013.1
20260905223058 62 172 1.0 4.0 0.00 0.00 0.00 83 1013.0
20260905222543 63 139 1.0 3.0 0.00 0.00 0.00 84 1013.0
20260905222044 63 0 0.0 2.0 0.00 0.00 0.00 85 1012.6
20260905221603 63 302 0.0 2.0 0.00 0.00 0.00 85 1012.7
20260905221044 63 0 0.0 2.0 0.00 0.00 0.00 86 1012.7
20260905220543 63 0 0.0 2.0 0.00 0.00 0.00 85 1012.6
20260905220100 62 0 1.0 2.0 0.00 0.00 0.00 85 1012.5
20260905215545 63 0 0.0 2.0 0.00 0.00 0.00 84 1012.3
20260905215044 63 77 0.0 2.0 0.00 0.00 0.00 84 1012.3
20260905214553 63 1 0.0 2.0 0.00 0.00 0.00 83 1012.3